Location: Charentilly
(47.4702°N, 0.6096°E)
Time: 05:47:08
(UTC+01:00)

ISS - Visible Passes

Search period start: 23 February 2018 00:00
Search period end: 05 March 2018 00:00
Orbit: 402 x 407 km, 51.6° (Epoch: 23 February)

Date Brightness Start Highest point End Pass type
(mag) Time Alt. Az. Time Alt. Az. Time Alt. Az.
27 Feb -2.0 07:06:07 10° SSW 07:09:04 31° SE 07:12:01 10° E visible
28 Feb -1.3 06:14:33 10° S 06:16:57 19° SE 06:19:21 10° E visible
01 Mar -0.9 05:23:57 10° SSE 05:24:53 11° SE 05:25:55 10° ESE visible
01 Mar -3.4 06:57:34 10° SW 07:00:48 62° SSE 07:04:03 10° ENE visible
02 Mar -2.6 06:06:45 20° SSW 06:08:34 37° SE 06:11:38 10° ENE visible
03 Mar -1.7 05:16:44 22° SE 05:16:44 22° SE 05:19:01 10° E visible
03 Mar -3.8 06:49:24 10° WSW 06:52:36 74° NNW 06:55:53 10° ENE visible
04 Mar -3.8 05:59:15 41° SW 06:00:15 74° SSE 06:03:31 10° ENE visible
